Torrington, WY

11:50 PM MDT on April 25, 2017 (GMT -0600)
Torrington Municipal

Weather History for KTOR - May, 2013

Change the Weather History Date:

Friday, May 17, 2013

  Actual Average Record
Temperature  
Mean Temperature 71 °F 57 °F  
Max Temperature 91 °F 71 °F 91 °F (2013)
Min Temperature 51 °F 42 °F 32 °F (2016)
Degree Days  
Heating Degree Days 0 9  
Month to date heating degree days 177 186  
Since 1 July heating degree days 6394 6418  
Cooling Degree Days 6 0  
Month to date cooling degree days 21 0  
Year to date cooling degree days 21 1  
Growing Degree Days 22 (Base 50)    
Moisture  
Dew Point 45 °F    
Average Humidity 48    
Maximum Humidity 83    
Minimum Humidity 12    
Precipitation  
Precipitation 0.00 in 0.06 in 0.18 in (2004)
Month to date precipitation 0.40 1.10  
Year to date precipitation 2.85 4.11  
Sea Level Pressure  
Sea Level Pressure 29.65 in    
Wind  
Wind Speed 8 mph (SE)    
Max Wind Speed 21 mph    
Max Gust Speed 25 mph    
Visibility 10 miles    
Events Thunderstorm    
T = Trace of Precipitation, MM = Missing Value Source: NWS Daily Summary

Daily Weather History Graph

Daily Weather History Graph

Search for Another Location

Airport or City:

Trip Planner

Search our weather history database for the weather conditions in past years. The results will help you decide how hot, cold, wet, or windy it might be!

Date:

Astronomy

May. 17, 2013 Rise Set
Actual Time 5:33 AM MDT 8:12 PM MDT
Civil Twilight 5:01 AM MDT 8:45 PM MDT
Nautical Twilight 4:21 AM MDT 9:25 PM MDT
Astronomical Twilight 3:35 AM MDT 10:11 PM MDT
Moon 12:11 PM MDT (5/17) 1:04 AM MDT (5/17)
Length of Visible Light 15h 43m
Length of Day
14h 39m
Waxing Crescent, 46% of the Moon is Illuminated
May 17
Waxing Crescent
May 17
First Quarter
May 24
Full
May 31
Last Quarter
Jun 8
New

Hourly Weather History & Observations

Time (MDT) Temp. Dew Point Humidity Pressure Visibility Wind Dir Wind Speed Gust Speed Precip Events Conditions
12:53 AM 61.0 °F 48.9 °F 64% 29.71 in 10.0 mi ESE 5.8 mph - N/A   Overcast
1:53 AM 61.0 °F 50.0 °F 67% 29.71 in 10.0 mi SE 3.5 mph - N/A   Overcast
2:53 AM 57.9 °F 51.1 °F 78% 29.71 in 10.0 mi East 12.7 mph - 0.00 in   Mostly Cloudy
3:53 AM 55.9 °F 50.0 °F 80% 29.71 in 10.0 mi East 8.1 mph - N/A   Clear
4:53 AM 55.0 °F 48.9 °F 80% 29.72 in 10.0 mi SE 3.5 mph - N/A   Clear
6:53 AM 57.0 °F 48.9 °F 74% 29.73 in 10.0 mi Calm Calm - N/A   Clear
7:53 AM 61.0 °F 50.0 °F 67% 29.73 in 10.0 mi SE 5.8 mph - N/A   Clear
8:53 AM 66.0 °F 50.0 °F 56% 29.72 in 10.0 mi ESE 6.9 mph - N/A   Clear
9:53 AM 70.0 °F 50.0 °F 49% 29.71 in 10.0 mi ESE 6.9 mph - N/A   Clear
10:53 AM 73.0 °F 51.1 °F 46% 29.70 in 10.0 mi South 8.1 mph - N/A   Clear
11:53 AM 78.1 °F 52.0 °F 40% 29.67 in 10.0 mi SE 13.8 mph 19.6 mph N/A   Clear
1:53 PM 87.1 °F 41.0 °F 20% 29.59 in 10.0 mi Variable 3.5 mph - N/A   Clear
2:53 PM 90.0 °F 33.1 °F 13% 29.57 in 10.0 mi SW 13.8 mph 23.0 mph N/A   Clear
3:53 PM 89.1 °F 32.0 °F 13% 29.55 in 10.0 mi SSW 8.1 mph - N/A   Clear
4:53 PM 87.1 °F 28.9 °F 12% 29.53 in 10.0 mi WSW 9.2 mph - N/A   Clear
5:53 PM 86.0 °F 30.0 °F 13% 29.54 in 10.0 mi SSW 16.1 mph - N/A   Clear
6:53 PM 81.0 °F 37.9 °F 21% 29.54 in 10.0 mi South 6.9 mph - N/A   Clear
7:53 PM 77.0 °F 37.0 °F 24% 29.55 in 10.0 mi SSW 10.4 mph - N/A   Clear
8:53 PM 73.0 °F 37.9 °F 28% 29.57 in 10.0 mi NNE 8.1 mph - N/A   Clear
9:53 PM 64.9 °F 48.9 °F 56% 29.61 in 10.0 mi NNE 10.4 mph - N/A   Clear
10:53 PM 63.0 °F 48.9 °F 60% 29.60 in 10.0 mi NNE 10.4 mph - N/A Thunderstorm Partly Cloudy
11:17 PM 62.6 °F 48.2 °F 59% 29.79 in 10.0 mi SE 3.5 mph 92.1 mph N/A   Scattered Clouds
11:53 PM 62.1 °F 48.9 °F 62% 29.62 in 10.0 mi ENE 10.4 mph - N/A   Clear